Regional Weather Roundup
Issued by NWS

Home | Current Version | Previous Version | Text Only | Print | Product List | Glossary Off
Versions: 1 2 3 4 5 6 7 8 9 10 11 12 13 14 15 16 17 18 19 20 21 22 23 24 25 26 27 28 29 30 31 32 33 34 35 36 37 38 39 40 41 42 43 44 45 46 47 48 49 50

000
ASUS45 KBOI 201310
RWRID

IDAHO REGIONAL WEATHER ROUNDUP
NATIONAL WEATHER SERVICE BOISE ID
700 AM MDT THU JUL 20 2017

NOTE: "FAIR" INDICATES FEW OR NO CLOUDS BELOW 12000 FEET
WITH NO SIGNIFICANT WEATHER AND/OR OBSTRUCTIONS TO VISIBILITY

IDZ012-014-201400-
SOUTHWEST IDAHO


CITY           SKY/WX    TMP DP  RH WIND       PRES   REMARKS
BOISE          CLEAR     64  39  39 CALM      30.00R
CALDWELL       CLEAR     64  48  56 NW7       29.99R
MOUNTAIN HOME  CLEAR     56  35  44 NW5       29.99R
$$

IDZ016-017-201400-
SOUTHCENTRAL IDAHO


CITY           SKY/WX    TMP DP  RH WIND       PRES   REMARKS
BURLEY         PTCLDY    59  52  77 W7        30.03R
JEROME         PTCLDY    57  43  59 CALM      30.04R
TWIN FALLS     PTCLDY    66  31  27 S10       30.04R
$$

IDZ019>023-201400-
SOUTHEAST IDAHO


CITY           SKY/WX    TMP DP  RH WIND       PRES   REMARKS
IDAHO FALLS    CLOUDY    58  53  84 NW5       30.09R
POCATELLO      CLEAR     63  54  72 NW8       30.05R
REXBURG        PTCLDY    55  47  74 NE5       30.10R
$$

IDZ006-010-011-018-031-032-201400-
CENTRAL IDAHO MOUNTAINS


CITY           SKY/WX    TMP DP  RH WIND       PRES   REMARKS
MCCALL         CLEAR     48  38  68 CALM      30.08R
HAILEY         PTCLDY    55  28  35 MISG      30.14S
STANLEY          N/A     35  26  69 CALM      30.24R
SALMON         NOT AVBL
CHALLIS        CLEAR     48  28  46 NW3       30.13R
$$

IDZ002-004-006-007-026-201400-
NORTHERN IDAHO


CITY           SKY/WX    TMP DP  RH WIND       PRES   REMARKS
LEWISTON       CLEAR     68  42  38 SE6       29.98R
LOWELL           N/A     56  50  80 CALM      30.03R
COEUR D`ALENE  MOCLDY    60  48  64 SW5       30.01R
MULLAN PASS    PTCLDY    54  34  46 NW8       30.13R
$$



USA.gov is the U.S. government's official web portal to all federal, state and local government web resources and services.